Temp
7 6 5 4 3 3 3 3 3 2 2 1 0 -0 -1 -1 -2 -2 -3 -3 -3 -3
6 6 5 5 4 3 3 3 2 2 1 1 -0 -1 -2 -2 -3 -3 -3 -3 -3 -4
6 5 5 4 4 4 3 2 2 1 1 -0 -1 -2 -3 -3 -3 -3 -4 -4 -4 -4
5 5 4 3 3 2 2 -0 1 1 -0 -1 -2 -2 -3 -3 -3 -3 -4 -4 -5 -5
3 3 3 3 2 1 0 0 -0 -1 -1 -2 -2 -3 -3 -3 -3 -4 -4 -4 -5 -5
3 3 2 2 2 0 -1 -2 -3 -2 -2 -2 -3 -3 -3 -3 -4 -4 -5 -5 -6 -6
2 1 1 1 -1 -2 -1 -2 -2 -2 -2 -2 -3 -3 -3 -4 -4 -5 -5 -6 -7 -7
1 -0 -0 -1 -0 -1 -1 -2 -2 -2 -2 -3 -3 -3 -4 -4 -5 -6 -6 -7 -8 -9
-0 -1 -2 -2 -2 -2 -2 -2 -3 -3 -3 -3 -4 -4 -5 -6 -6 -7 -8 -9 -9 -10
-0 -1 -2 -3 -3 -2 -3 -3 -3 -3 -3 -4 -4 -5 -5 -6 -8 -9 -9 -10 -10 -11
-1 -2 -3 -3 -3 -4 -3 -4 -3 -3 -4 -4 -5 -6 -7 -8 -9 -10 -10 -11 -11 -11
-2 -2 -3 -3 -3 -3 -3 -3 -3 -4 -4 -5 -6 -6 -7 -9 -10 -11 -11 -12 -11 -12
-2 -3 -3 -3 -3 -3 -3 -3 -4 -4 -5 -6 -7 -7 -8 -10 -11 -12 -12 -12 -12 -12
-3 -3 -3 -3 -3 -3 -4 -4 -4 -5 -6 -7 -7 -8 -9 -10 -13 -13 -13 -13 -13 -13
Height
1548 1546 1545 1542 1537 1537 1529 1529 1522 1522 1519 1518 1514 1511 1509 1505 1502 1502 1500 1498 1495 1491
1548 1545 1539 1537 1530 1528 1525 1523 1519 1517 1514 1512 1509 1508 1506 1502 1498 1496 1495 1493 1490 1488
1543 1538 1534 1530 1527 1524 1521 1518 1515 1515 1511 1506 1504 1503 1502 1499 1493 1492 1490 1488 1486 1484
1540 1536 1531 1526 1522 1520 1517 1515 1509 1508 1504 1501 1498 1497 1495 1493 1488 1487 1485 1482 1480 1478
1536 1532 1528 1522 1519 1515 1511 1508 1505 1503 1502 1499 1496 1493 1489 1487 1483 1481 1479 1477 1474 1471
1529 1526 1522 1517 1512 1509 1507 1503 1502 1497 1497 1495 1493 1491 1486 1482 1479 1476 1473 1470 1466 1462
1523 1518 1514 1512 1509 1504 1501 1497 1499 1498 1494 1491 1489 1487 1483 1478 1474 1471 1467 1463 1459 1455
1519 1515 1512 1509 1504 1500 1497 1492 1491 1493 1491 1487 1486 1482 1478 1473 1469 1465 1461 1456 1452 1448
1515 1510 1506 1501 1497 1495 1493 1491 1490 1490 1486 1483 1480 1477 1473 1468 1464 1458 1453 1448 1444 1441
1509 1504 1499 1496 1493 1491 1491 1488 1488 1485 1481 1479 1476 1471 1467 1462 1456 1451 1447 1442 1438 1434
1504 1499 1494 1492 1489 1487 1487 1485 1484 1480 1478 1474 1470 1466 1460 1456 1451 1446 1441 1437 1432 1427
1499 1494 1491 1488 1486 1485 1483 1482 1480 1477 1473 1470 1466 1461 1455 1450 1445 1440 1435 1431 1426 1421
1494 1491 1488 1485 1483 1481 1480 1478 1475 1472 1469 1465 1461 1456 1450 1444 1438 1434 1429 1425 1421 1417
1489 1487 1484 1482 1479 1478 1477 1475 1472 1469 1465 1461 1457 1452 1447 1441 1434 1430 1426 1421 1417 1414
Wind_Speed
10 8 11 26 30 39 24 21 18 16 21 26 26 24 25 23 19 19 20 21 20 21
22 27 28 29 27 19 21 20 16 19 24 27 25 23 23 21 21 21 20 21 23 22
30 32 37 34 30 23 23 19 18 25 26 23 21 21 19 21 20 22 24 26 24 25
29 32 33 28 20 24 22 24 25 23 25 19 18 17 18 21 22 24 26 22 18 20
25 28 32 28 28 32 27 22 17 21 22 19 17 20 21 24 26 26 25 25 27 31
33 29 29 27 28 20 12 13 16 15 15 16 21 21 23 24 24 22 23 27 29 31
37 32 25 23 17 18 32 17 11 15 15 20 20 22 24 24 23 24 25 28 35 34
35 31 29 26 29 26 14 7 5 14 19 18 21 22 23 24 23 27 34 33 27 29
33 34 32 30 26 16 5 4 9 19 18 20 20 23 20 24 30 31 30 30 28 26
37 38 31 25 13 15 6 17 14 17 20 18 19 20 26 29 30 30 29 28 27 26
35 34 25 17 15 9 12 13 17 17 18 17 21 25 28 28 28 28 28 27 27 28
31 28 19 16 16 12 18 13 15 16 16 19 24 28 30 28 27 26 25 27 28 23
30 20 16 13 16 15 9 16 16 14 16 20 25 28 27 26 27 26 27 25 22 19
24 17 13 11 8 11 16 15 12 13 19 24 26 25 24 26 22 21 22 21 19 16
Wind_Direction
258 270 316 323 317 311 299 289 287 289 309 317 322 313 309 314 326 327 329 326 321 316
323 321 316 321 326 300 286 285 270 296 318 322 318 314 317 321 328 329 329 329 326 322
335 327 329 323 315 300 288 269 286 311 320 326 322 322 318 321 330 326 324 324 320 319
333 324 323 311 292 287 280 290 297 306 320 324 323 316 317 321 326 322 321 316 310 306
335 327 317 302 294 294 290 288 300 325 314 322 316 317 318 317 323 321 313 309 305 306
328 321 319 293 293 272 273 281 302 322 311 315 317 316 315 317 317 308 305 304 306 310
330 335 328 293 268 273 298 320 320 302 313 321 318 313 313 316 311 303 304 310 313 314
336 336 333 319 316 314 310 323 263 310 318 316 313 313 310 307 307 312 313 316 317 316
337 337 335 327 313 291 314 271 295 308 312 319 312 313 306 310 315 320 321 321 318 317
336 337 334 329 307 299 285 289 314 307 318 310 310 310 316 322 322 321 321 318 317 318
334 335 329 313 291 262 281 307 301 313 307 305 312 322 325 320 317 318 318 316 320 319
335 335 327 323 331 329 313 290 306 307 300 314 323 326 325 321 320 320 317 317 320 324
333 330 314 313 311 310 296 305 316 304 316 326 331 331 331 332 326 324 328 333 333 331
322 316 314 317 331 312 311 305 305 318 329 333 335 338 339 335 329 336 332 338 341 342